SL-14 DEB

Satellite information

Favourite Embed

Satellite Type and Status

DEBRISIN ORBIT

Key statistics

Satellite SL-14 DEB at a glance.

Uptime

17216

Days in orbit

Revolutions

≈ 12.9

Per day

Orbit

LEO

Low Earth Orbit

Inclination

82.4

Latest

Satellite identification and parameters

Extended collection of information and parameters for SL-14 DEB.

Object identification

Identified? True

Debris? True

Object name: SL-14 DEB

International designator: 1978-100J

Object number (NORAD): 19136

Object ID (CCSDS): 19136

Country: COMMONWEALTH OF INDEPENDENT STATES (CIS)

Current information (Y/N): Y

RCS size: SMALL

Orbital parameters

Period: 111.241 minutes

Inclination: 82.4137 deg

SMA: 7661.927 km

Apoapsis: 1582.151 km

Periapsis: 985.433 km

RAAN: 298.3609 deg

Eccentricy: 0.03894049

Argument of periapsis: 189.1967 deg

Mean anomaly: 350.5582 deg

Mean motion: 12.94481264 rev/day

Mean motion (dot): -0.00001851 rev/day2

B* drag term: -0.0047517343 1/REarth

Two-line elements (TLE)

Creation date: Dec. 14, 2025, 3:07 a.m.

Reference frame: TEME

Reference center: EARTH

Epoch: Dec. 13, 2025, 3:34 p.m. UTC

TLE line 0: 0 SL-14 DEB

TLE line 1: 1 19136U 78100J 25347.64927803 -.00001851 00000-0 -47517-2 0 9999

TLE line 2: 2 19136 82.4137 298.3609 0389405 189.1967 350.5582 12.94481264184466

Live tracking on map

Real-time ground track for satellite SL-14 DEB.

In-orbit conjunctions

A list of the most updated potential collisions computed for object SL-14 DEB.

Target Orbit TCA Probability of collision Miss distance Type
COSMOS 1058 LEO 2025-11-06 18:35:46 0.0007624153 326.0 (m) PAYLOAD
THORAD AGENA D DEB SSO 2024-11-12 21:57:20 0.0001259717 557.0 (m) DEBRIS

Associated space launch

Mass model of the Meteor-2 meteorological satellite

SL-14 DEB was lifted into orbit during the mission ‘Tsiklon-3 | Meteor-2-GVM’, on board a Tsiklon-3 space rocket.

The launch took place on Oct. 26, 1978, 7 a.m. from 32/2.

For more information about the launch, click the button.

Launch to space Tsiklon-3 | Meteor-2-GVM
Tsiklon-3 | Meteor-2-GVM

Agency: N/A

Status: Launch Successful

Launch date: Oct. 26, 1978, 7 a.m. UTC

Rocket: Tsiklon-3

Launch pad: 32/2

Location: Plesetsk Cosmodrome, Russian Federation

...

Latest news about this satellite

There are no fresh news available about this satellite. Check back as we update our databases every day.


Newsletter sign-up

Weekly statistics, charts and insights to help you stay on top of the space industry.